Flag for Germany Weather past 2 weeks in Rastatt, Baden-Württemberg, Germany

Now
39 °F

Scattered showers. Passing clouds.


Feels Like: 32 °F
Forecast: 33 / 42 °F
Wind: 12 mph from Southwest

Location: Karlsruhe - Baden Wurttemberg

Current Time: Jan 30, 2015 at 3:56:01 AM

Latest Report: Jan 30, 2015 at 1:50 AM


Visibility: N/A

Pressure: 28.77 "Hg

Humidity: 87%

Dew point: 36 °F

Location of RastattLocation

Historic Weather in Rastatt — Graph

°F

Rastatt temperature yesterday

Maximum temperature yesterday: 41 °F (at 12:50 PM)
Minimum temperature yesterday: 34 °F (at 6:20 AM)
Average temperature yesterday: 39 °F

Past Weeks' High & Low Weather Summary

 TemperatureHumidityPressure
High54 °F (Jan 15, 4:50 PM)100% (Jan 16, 4:50 PM)30.45 "Hg (Jan 16, 4:50 PM)
Low27 °F (Jan 18, 5:20 AM)47% (Jan 15, 1:20 PM)28.77 "Hg (Jan 30, 12:50 AM)
Average36 °F86%29.95 "Hg
* Reported Jan 15 5:20 AM — Jan 30 1:50 AM, Rastatt, Weather by CustomWeather, © 2014

Note: Actual official high and low records may vary slightly from our data, if they occured in-between our weather recording intervals... More about our weather records

Advertising

Rastatt weather history for previous 24 hours

 ConditionsComfort  
Time TempWeatherWind HumidityBarometerVisibility
1:50 AM
Jan 30
39 °FScattered showers. Passing clouds.12 mph87%28.77 "HgN/A
1:20 AM39 °FSprinkles. Passing clouds.18 mph93%28.77 "HgN/A
12:50 AM39 °FSprinkles. Passing clouds.14 mph93%28.77 "HgN/A
12:20 AM39 °FSprinkles. Passing clouds.15 mph93%28.80 "HgN/A
11:50 PM
Jan 29
41 °FSprinkles. Passing clouds.17 mph81%28.80 "HgN/A
11:20 PM41 °FSprinkles. Passing clouds.14 mph81%28.80 "HgN/A
10:50 PM41 °FSprinkles. Passing clouds.16 mph81%28.82 "HgN/A
10:20 PM41 °FLight rain. Passing clouds.17 mph81%28.85 "HgN/A
9:50 PM41 °FLight rain. Passing clouds.17 mph81%28.85 "HgN/A
9:20 PM41 °FLight rain. Passing clouds.17 mph81%28.88 "HgN/A
8:50 PM41 °FLight rain. Partly cloudy.20 mph81%28.91 "HgN/A
8:20 PM41 °FLight rain. Passing clouds.18 mph81%28.94 "HgN/A
7:50 PM41 °FLight rain. Passing clouds.21 mph81%28.97 "HgN/A
7:20 PM41 °FLight rain. Passing clouds.20 mph76%28.97 "HgN/A
6:50 PM41 °FLight rain. Passing clouds.20 mph76%29.00 "HgN/A
6:20 PM41 °FLight rain. Passing clouds.20 mph76%29.03 "HgN/A
5:50 PM41 °FScattered showers. Passing clouds.20 mph76%29.06 "HgN/A
5:20 PM41 °FScattered showers. Partly cloudy.20 mph76%29.09 "HgN/A
4:50 PM41 °FBroken clouds.20 mph76%29.12 "HgN/A
4:20 PM41 °FPartly sunny.22 mph76%29.15 "HgN/A
3:50 PM41 °FBroken clouds.21 mph81%29.18 "HgN/A
3:20 PM41 °FScattered showers. Partly sunny.21 mph76%29.18 "HgN/A
2:50 PM41 °FScattered showers. Partly sunny.18 mph76%29.21 "HgN/A
2:20 PM41 °FLight rain. Partly sunny.20 mph81%29.24 "HgN/A
1:50 PM41 °FLight rain. Partly sunny.20 mph76%29.27 "HgN/A
1:20 PM41 °FLight rain. Partly sunny.21 mph76%29.30 "HgN/A
12:50 PM41 °FLight rain. Partly sunny.23 mph76%29.33 "HgN/A
12:20 PM39 °FLight rain. Partly sunny.22 mph75%29.36 "HgN/A
11:50 AM39 °FPartly sunny.20 mph75%29.39 "HgN/A
11:20 AM39 °FLight rain. Partly sunny.21 mph75%29.42 "HgN/A
10:50 AM39 °FPartly sunny.21 mph70%29.42 "HgN/A
10:20 AM37 °FLight rain. Partly sunny.18 mph75%29.45 "HgN/A
9:50 AM37 °FPartly sunny.21 mph75%29.47 "HgN/A
9:20 AM36 °FScattered clouds.21 mph81%29.50 "HgN/A
8:50 AM36 °FScattered clouds.18 mph81%29.50 "HgN/A
8:20 AM36 °FBroken clouds.18 mph81%29.53 "HgN/A
7:50 AM36 °FPassing clouds.15 mph81%29.53 "HgN/A
7:20 AM36 °FPassing clouds.15 mph81%29.53 "HgN/A
6:50 AM36 °FPassing clouds.13 mph75%29.56 "HgN/A
6:20 AM34 °FPassing clouds.9 mph81%29.56 "HgN/A
5:50 AM36 °FPassing clouds.9 mph81%29.56 "HgN/A
5:20 AM36 °FPassing clouds.8 mph75%29.59 "HgN/A
Weather by CustomWeather, © 2014

See weather overviewHow to use our weather pages